Home > Weather > Lincoln > Past weeks

Flag for U.S.A. Weather for the Past 2 Weeks in Lincoln, Nebraska, U.S.A.

Now
26 °F

Overcast.


Feels Like: 14 °F
Forecast: 12 / 26 °F
Wind: 16 mph from North

Location: Lincoln Municipal Airport

Current Time: Feb 12, 2016 at 6:59:15 AM

Latest Report: Feb 12, 2016 at 6:03 AM


Visibility: 8 mi

Pressure: 30.37 "Hg

Humidity: 81%

Dew point: 21 °F

Location of LincolnLocation

Historic Weather in Lincoln — Graph

°F

Lincoln Temperature Yesterday

Maximum temperature yesterday: 30 °F (at 8:54 PM)
Minimum temperature yesterday: 16 °F (at 5:01 AM)
Average temperature yesterday: 24 °F

High & Low Weather Summary for the Past Weeks

 TemperatureHumidityPressure
High52 °F (Jan 30, 1:54 PM)100% (Feb 2, 7:54 AM)30.42 "Hg (Feb 2, 7:54 AM)
Low9 °F (Feb 4, 5:54 AM)39% (Jan 31, 3:54 PM)29.39 "Hg (Feb 2, 1:54 PM)
Average31 °F75%30.04 "Hg
* Reported Jan 28 4:54 AM — Feb 12 4:54 AM, Lincoln, Weather by CustomWeather, © 2016

Note: Actual official high and low records may vary slightly from our data, if they occured in-between our weather recording intervals... More about our weather records

Advertising

Lincoln Weather History for the Previous 24 Hours

 ConditionsComfort  
Time TempWeatherWind HumidityBarometerVisibility
4:54 AM
Fri, Feb 12
28 °FOvercast.17 mph81%30.37 "Hg7 mi
3:54 AM28 °FIce fog.18 mph85%30.33 "Hg6 mi
2:54 AM29 °FIce fog.9 mph85%30.31 "Hg5 mi
1:54 AM29 °FIce fog.7 mph85%30.29 "Hg5 mi
12:54 AM29 °FIce fog.5 mph85%30.26 "Hg5 mi
12:02 AM29 °FIce fog.5 mph85%30.23 "Hg6 mi
10:54 PM
Thu, Feb 11
29 °FMostly cloudy.5 mph82%30.25 "Hg6 mi
9:54 PM30 °FOvercast.6 mph79%30.25 "Hg8 mi
8:54 PM30 °FOvercast.3 mph79%30.24 "Hg9 mi
7:54 PM29 °FOvercast.No wind82%30.24 "Hg9 mi
6:54 PM29 °FOvercast.5 mph82%30.24 "Hg9 mi
5:54 PM29 °FOvercast.5 mph79%30.23 "Hg8 mi
4:54 PM28 °FOvercast.8 mph81%30.23 "Hg7 mi
3:54 PM28 °FOvercast.12 mph78%30.21 "Hg7 mi
2:54 PM27 °FOvercast.10 mph81%30.20 "Hg6 mi
1:54 PM26 °FOvercast.9 mph81%30.26 "Hg7 mi
12:54 PM25 °FMostly cloudy.8 mph78%30.30 "Hg8 mi
11:54 AM24 °FOvercast.6 mph77%30.34 "Hg9 mi
10:54 AM22 °FOvercast.5 mph82%30.35 "Hg6 mi
9:54 AM21 °FOvercast.5 mph78%30.35 "Hg7 mi
8:54 AM19 °FOvercast.6 mph85%30.34 "Hg7 mi
7:54 AM19 °FOvercast.8 mph81%30.35 "Hg10 mi
6:54 AM19 °FMostly cloudy.7 mph81%30.34 "Hg10 mi
Weather by CustomWeather, © 2016

See weather overviewHow to use our weather pages